Year,Month,Day,Hour,Minute,Value (Times are PST for temperature in C)
2015,06,23,00,00,13.20
2015,06,23,00,01,13.20
2015,06,23,00,02,13.10
2015,06,23,00,03,13.10
2015,06,23,00,04,13.10
2015,06,23,00,05,13.00
2015,06,23,00,06,13.00
2015,06,23,00,07,12.90
2015,06,23,00,08,12.90
2015,06,23,00,09,12.90
2015,06,23,00,10,12.90
2015,06,23,00,11,12.90
2015,06,23,00,12,12.90
2015,06,23,00,13,12.90
2015,06,23,00,14,12.90
2015,06,23,00,15,12.90
2015,06,23,00,16,12.90
2015,06,23,00,17,12.80
2015,06,23,00,18,12.80
2015,06,23,00,19,12.80
2015,06,23,00,20,12.80
2015,06,23,00,21,12.80
2015,06,23,00,22,12.80
2015,06,23,00,23,12.70
2015,06,23,00,24,12.70
2015,06,23,00,25,12.70
2015,06,23,00,26,12.70
2015,06,23,00,27,12.60
2015,06,23,00,28,12.60
2015,06,23,00,29,12.60
2015,06,23,00,30,12.60
2015,06,23,00,31,12.60
2015,06,23,00,32,12.50
2015,06,23,00,33,12.50
2015,06,23,00,34,12.50
2015,06,23,00,35,12.50
2015,06,23,00,36,12.40
2015,06,23,00,37,12.40
2015,06,23,00,38,12.40
2015,06,23,00,39,12.40
2015,06,23,00,40,12.30
2015,06,23,00,41,12.30
2015,06,23,00,42,12.30
2015,06,23,00,43,12.20
2015,06,23,00,44,12.20
2015,06,23,00,45,12.20
2015,06,23,00,46,12.20
2015,06,23,00,47,12.20
2015,06,23,00,48,12.20
2015,06,23,00,49,12.20
2015,06,23,00,50,12.10
2015,06,23,00,51,12.10
2015,06,23,00,52,12.10
2015,06,23,00,53,12.10
2015,06,23,00,54,12.10
2015,06,23,00,55,12.10
2015,06,23,00,56,12.00
2015,06,23,00,57,12.00
2015,06,23,00,58,12.00
2015,06,23,00,59,12.00
2015,06,23,01,00,11.90
2015,06,23,01,01,11.90
2015,06,23,01,02,11.90
2015,06,23,01,03,11.90
2015,06,23,01,04,11.90
2015,06,23,01,05,11.90
2015,06,23,01,06,11.90
2015,06,23,01,07,11.90
2015,06,23,01,08,11.90
2015,06,23,01,09,11.90
2015,06,23,01,10,11.90
2015,06,23,01,11,11.90
2015,06,23,01,12,11.90
2015,06,23,01,13,11.90
2015,06,23,01,14,11.90
2015,06,23,01,15,11.90
2015,06,23,01,16,11.90
2015,06,23,01,17,11.90
2015,06,23,01,18,12.00
2015,06,23,01,19,12.00
2015,06,23,01,20,11.90
2015,06,23,01,21,11.90
2015,06,23,01,22,11.90
2015,06,23,01,23,11.90
2015,06,23,01,24,11.90
2015,06,23,01,25,11.90
2015,06,23,01,26,11.90
2015,06,23,01,27,11.90
2015,06,23,01,28,11.90
2015,06,23,01,29,11.90
2015,06,23,01,30,11.90
2015,06,23,01,31,11.90
2015,06,23,01,32,11.90
2015,06,23,01,33,11.90
2015,06,23,01,34,11.90
2015,06,23,01,35,11.90
2015,06,23,01,36,11.90
2015,06,23,01,37,11.90
2015,06,23,01,38,11.90
2015,06,23,01,39,11.90
2015,06,23,01,40,11.80
2015,06,23,01,41,11.80
2015,06,23,01,42,11.80
2015,06,23,01,43,11.80
2015,06,23,01,44,11.80
2015,06,23,01,45,11.80
2015,06,23,01,46,11.80
2015,06,23,01,47,11.80
2015,06,23,01,48,11.70
2015,06,23,01,49,11.70
2015,06,23,01,50,11.70
2015,06,23,01,51,11.70
2015,06,23,01,52,11.70
2015,06,23,01,53,11.70
2015,06,23,01,54,11.70
2015,06,23,01,55,11.70
2015,06,23,01,56,11.70
2015,06,23,01,57,11.70
2015,06,23,01,58,11.70
2015,06,23,01,59,11.70
2015,06,23,02,00,11.70
2015,06,23,02,01,11.70
2015,06,23,02,02,11.70
2015,06,23,02,03,11.70
2015,06,23,02,04,11.70
2015,06,23,02,05,11.70
2015,06,23,02,06,11.70
2015,06,23,02,07,11.70
2015,06,23,02,08,11.70
2015,06,23,02,09,11.70
2015,06,23,02,10,11.70
2015,06,23,02,11,11.70
2015,06,23,02,12,11.70
2015,06,23,02,13,11.70
2015,06,23,02,14,11.70
2015,06,23,02,15,11.60
2015,06,23,02,16,11.60
2015,06,23,02,17,11.60
2015,06,23,02,18,11.60
2015,06,23,02,19,11.60
2015,06,23,02,20,11.60
2015,06,23,02,21,11.60
2015,06,23,02,22,11.60
2015,06,23,02,23,11.60
2015,06,23,02,24,11.60
2015,06,23,02,25,11.60
2015,06,23,02,26,11.60
2015,06,23,02,27,11.60
2015,06,23,02,28,11.60
2015,06,23,02,29,11.50
2015,06,23,02,30,11.50
2015,06,23,02,31,11.50
2015,06,23,02,32,11.50
2015,06,23,02,33,11.50
2015,06,23,02,34,11.40
2015,06,23,02,35,11.40
2015,06,23,02,36,11.40
2015,06,23,02,37,11.40
2015,06,23,02,38,11.40
2015,06,23,02,39,11.40
2015,06,23,02,40,11.40
2015,06,23,02,41,11.40
2015,06,23,02,42,11.40
2015,06,23,02,43,11.40
2015,06,23,02,44,11.40
2015,06,23,02,45,11.40
2015,06,23,02,46,11.40
2015,06,23,02,47,11.40
2015,06,23,02,48,11.40
2015,06,23,02,49,11.40
2015,06,23,02,50,11.40
2015,06,23,02,51,11.40
2015,06,23,02,52,11.40
2015,06,23,02,53,11.40
2015,06,23,02,54,11.40
2015,06,23,02,55,11.40
2015,06,23,02,56,11.40
2015,06,23,02,57,11.30
2015,06,23,02,58,11.30
2015,06,23,02,59,11.30
2015,06,23,03,00,11.30
2015,06,23,03,01,11.30
2015,06,23,03,02,11.30
2015,06,23,03,03,11.30
2015,06,23,03,04,11.30
2015,06,23,03,05,11.30
2015,06,23,03,06,11.20
2015,06,23,03,07,11.20
2015,06,23,03,08,11.20
2015,06,23,03,09,11.20
2015,06,23,03,10,11.20
2015,06,23,03,11,11.20
2015,06,23,03,12,11.20
2015,06,23,03,13,11.20
2015,06,23,03,14,11.10
2015,06,23,03,15,11.10
2015,06,23,03,16,11.10
2015,06,23,03,17,11.00
2015,06,23,03,18,11.00
2015,06,23,03,19,10.90
2015,06,23,03,20,10.90
2015,06,23,03,21,10.90
2015,06,23,03,22,10.80
2015,06,23,03,23,10.80
2015,06,23,03,24,10.70
2015,06,23,03,25,10.70
2015,06,23,03,26,10.60
2015,06,23,03,27,10.60
2015,06,23,03,28,10.60
2015,06,23,03,29,10.50
2015,06,23,03,30,10.50
2015,06,23,03,31,10.40
2015,06,23,03,32,10.40
2015,06,23,03,33,10.40
2015,06,23,03,34,10.40
2015,06,23,03,35,10.30
2015,06,23,03,36,10.30
2015,06,23,03,37,10.30
2015,06,23,03,38,10.30
2015,06,23,03,39,10.30
2015,06,23,03,40,10.30
2015,06,23,03,41,10.30
2015,06,23,03,42,10.30
2015,06,23,03,43,10.30
2015,06,23,03,44,10.30
2015,06,23,03,45,10.20
2015,06,23,03,46,10.20
2015,06,23,03,47,10.20
2015,06,23,03,48,10.20
2015,06,23,03,49,10.20
2015,06,23,03,50,10.10
2015,06,23,03,51,10.10
2015,06,23,03,52,10.10
2015,06,23,03,53,10.10
2015,06,23,03,54,10.10
2015,06,23,03,55,10.00
2015,06,23,03,56,10.00
2015,06,23,03,57,10.00
2015,06,23,03,58,10.00
2015,06,23,03,59,10.00
2015,06,23,04,00,10.00
2015,06,23,04,01,9.90
2015,06,23,04,02,10.00
2015,06,23,04,03,10.00
2015,06,23,04,04,10.00
2015,06,23,04,05,10.10
2015,06,23,04,06,10.10
2015,06,23,04,07,10.20
2015,06,23,04,08,10.20
2015,06,23,04,09,10.20
2015,06,23,04,10,10.20
2015,06,23,04,11,10.20
2015,06,23,04,12,10.20
2015,06,23,04,13,10.20
2015,06,23,04,14,10.10
2015,06,23,04,15,10.10
2015,06,23,04,16,10.10
2015,06,23,04,17,10.00
2015,06,23,04,18,10.00
2015,06,23,04,19,9.90
2015,06,23,04,20,9.90
2015,06,23,04,21,9.90
2015,06,23,04,22,9.90
2015,06,23,04,23,9.80
2015,06,23,04,24,9.80
2015,06,23,04,25,9.80
2015,06,23,04,26,9.70
2015,06,23,04,27,9.70
2015,06,23,04,28,9.70
2015,06,23,04,29,9.70
2015,06,23,04,30,9.70
2015,06,23,04,31,9.60
2015,06,23,04,32,9.60
2015,06,23,04,33,9.60
2015,06,23,04,34,9.60
2015,06,23,04,35,9.60
2015,06,23,04,36,9.60
2015,06,23,04,37,9.60
2015,06,23,04,38,9.60
2015,06,23,04,39,9.60
2015,06,23,04,40,9.60
2015,06,23,04,41,9.60
2015,06,23,04,42,9.60
2015,06,23,04,43,9.60
2015,06,23,04,44,9.50
2015,06,23,04,45,9.50
2015,06,23,04,46,9.50
2015,06,23,04,47,9.50
2015,06,23,04,48,9.40
2015,06,23,04,49,9.40
2015,06,23,04,50,9.40
2015,06,23,04,51,9.30
2015,06,23,04,52,9.30
2015,06,23,04,53,9.30
2015,06,23,04,54,9.30
2015,06,23,04,55,9.30
2015,06,23,04,56,9.30
2015,06,23,04,57,9.30
2015,06,23,04,58,9.20
2015,06,23,04,59,9.20
2015,06,23,05,00,9.20
2015,06,23,05,01,9.20
2015,06,23,05,02,9.20
2015,06,23,05,03,9.20
2015,06,23,05,04,9.20
2015,06,23,05,05,9.20
2015,06,23,05,06,9.10
2015,06,23,05,07,9.10
2015,06,23,05,08,9.10
2015,06,23,05,09,9.10
2015,06,23,05,10,9.10
2015,06,23,05,11,9.00
2015,06,23,05,12,9.00
2015,06,23,05,13,9.00
2015,06,23,05,14,9.00
2015,06,23,05,15,8.90
2015,06,23,05,16,8.90
2015,06,23,05,17,8.90
2015,06,23,05,18,8.90
2015,06,23,05,19,8.80
2015,06,23,05,20,8.80
2015,06,23,05,21,8.80
2015,06,23,05,22,8.80
2015,06,23,05,23,8.80
2015,06,23,05,24,8.80
2015,06,23,05,25,8.80
2015,06,23,05,26,8.80
2015,06,23,05,27,8.80
2015,06,23,05,28,8.80
2015,06,23,05,29,8.80
2015,06,23,05,30,8.80
2015,06,23,05,31,8.80
2015,06,23,05,32,8.80
2015,06,23,05,33,8.80
2015,06,23,05,34,8.70
2015,06,23,05,35,8.70
2015,06,23,05,36,8.70
2015,06,23,05,37,8.70
2015,06,23,05,38,8.70
2015,06,23,05,39,8.70
2015,06,23,05,40,8.70
2015,06,23,05,41,8.70
2015,06,23,05,42,8.70
2015,06,23,05,43,8.70
2015,06,23,05,44,8.70
2015,06,23,05,45,8.70
2015,06,23,05,46,8.70
2015,06,23,05,47,8.70
2015,06,23,05,48,8.70
2015,06,23,05,49,8.70
2015,06,23,05,50,8.70
2015,06,23,05,51,8.70
2015,06,23,05,52,8.70
2015,06,23,05,53,8.60
2015,06,23,05,54,8.60
2015,06,23,05,55,8.60
2015,06,23,05,56,8.60
2015,06,23,05,57,8.60
2015,06,23,05,58,8.60
2015,06,23,05,59,8.60
2015,06,23,06,00,8.60
2015,06,23,06,01,8.60
2015,06,23,06,02,8.60
2015,06,23,06,03,8.60
2015,06,23,06,04,8.60
2015,06,23,06,05,8.60
2015,06,23,06,06,8.60
2015,06,23,06,07,8.60
2015,06,23,06,08,8.60
2015,06,23,06,09,8.60
2015,06,23,06,10,8.60
2015,06,23,06,11,8.60
2015,06,23,06,12,8.60
2015,06,23,06,13,8.60
2015,06,23,06,14,8.60
2015,06,23,06,15,8.60
2015,06,23,06,16,8.60
2015,06,23,06,17,8.60
2015,06,23,06,18,8.60
2015,06,23,06,19,8.60
2015,06,23,06,20,8.60
2015,06,23,06,21,8.60
2015,06,23,06,22,8.60
2015,06,23,06,23,8.60
2015,06,23,06,24,8.60
2015,06,23,06,25,8.60
2015,06,23,06,26,8.60
2015,06,23,06,27,8.60
2015,06,23,06,28,8.60
2015,06,23,06,29,8.60
2015,06,23,06,30,8.60
2015,06,23,06,31,8.60
2015,06,23,06,32,8.70
2015,06,23,06,33,8.70
2015,06,23,06,34,8.70
2015,06,23,06,35,8.60
2015,06,23,06,36,8.70
2015,06,23,06,37,8.70
2015,06,23,06,38,8.70
2015,06,23,06,39,8.70
2015,06,23,06,40,8.70
2015,06,23,06,41,8.70
2015,06,23,06,42,8.70
2015,06,23,06,43,8.70
2015,06,23,06,44,8.70
2015,06,23,06,45,8.70
2015,06,23,06,46,8.70
2015,06,23,06,47,8.70
2015,06,23,06,48,8.70
2015,06,23,06,49,8.70
2015,06,23,06,50,8.80
2015,06,23,06,51,8.80
2015,06,23,06,52,8.80
2015,06,23,06,53,8.80
2015,06,23,06,54,8.80
2015,06,23,06,55,8.90
2015,06,23,06,56,8.90
2015,06,23,06,57,8.90
2015,06,23,06,58,8.90
2015,06,23,06,59,8.90
2015,06,23,07,00,9.00
2015,06,23,07,01,9.00
2015,06,23,07,02,9.10
2015,06,23,07,03,9.10
2015,06,23,07,04,9.20
2015,06,23,07,05,9.20
2015,06,23,07,06,9.20
2015,06,23,07,07,9.30
2015,06,23,07,08,9.30
2015,06,23,07,09,9.40
2015,06,23,07,10,9.40
2015,06,23,07,11,9.50
2015,06,23,07,12,9.50
2015,06,23,07,13,9.60
2015,06,23,07,14,9.60
2015,06,23,07,15,9.60
2015,06,23,07,16,9.70
2015,06,23,07,17,9.80
2015,06,23,07,18,9.80
2015,06,23,07,19,9.90
2015,06,23,07,20,10.00
2015,06,23,07,21,10.00
2015,06,23,07,22,10.10
2015,06,23,07,23,10.10
2015,06,23,07,24,10.20
2015,06,23,07,25,10.20
2015,06,23,07,26,10.30
2015,06,23,07,27,10.30
2015,06,23,07,28,10.40
2015,06,23,07,29,10.40
2015,06,23,07,30,10.50
2015,06,23,07,31,10.50
2015,06,23,07,32,10.60
2015,06,23,07,33,10.60
2015,06,23,07,34,10.70
2015,06,23,07,35,10.70
2015,06,23,07,36,10.80
2015,06,23,07,37,10.80
2015,06,23,07,38,10.90
2015,06,23,07,39,11.00
2015,06,23,07,40,11.10
2015,06,23,07,41,11.20
2015,06,23,07,42,11.20
2015,06,23,07,43,11.30
2015,06,23,07,44,11.40
2015,06,23,07,45,11.40
2015,06,23,07,46,11.50
2015,06,23,07,47,11.50
2015,06,23,07,48,11.60
2015,06,23,07,49,11.60
2015,06,23,07,50,11.60
2015,06,23,07,51,11.70
2015,06,23,07,52,11.70
2015,06,23,07,53,11.70
2015,06,23,07,54,11.80
2015,06,23,07,55,11.80
2015,06,23,07,56,11.80
2015,06,23,07,57,11.80
2015,06,23,07,58,11.90
2015,06,23,07,59,11.90
2015,06,23,08,00,11.90
2015,06,23,08,01,12.00
2015,06,23,08,02,12.00
2015,06,23,08,03,12.10
2015,06,23,08,04,12.10
2015,06,23,08,05,12.20
2015,06,23,08,06,12.20
2015,06,23,08,07,12.30
2015,06,23,08,08,12.40
2015,06,23,08,09,12.50
2015,06,23,08,10,12.60
2015,06,23,08,11,12.60
2015,06,23,08,12,12.70
2015,06,23,08,13,12.80
2015,06,23,08,14,12.80
2015,06,23,08,15,12.90
2015,06,23,08,16,13.00
2015,06,23,08,17,13.10
2015,06,23,08,18,13.10
2015,06,23,08,19,13.20
2015,06,23,08,20,13.20
2015,06,23,08,21,13.30
2015,06,23,08,22,13.30
2015,06,23,08,23,13.40
2015,06,23,08,24,13.40
2015,06,23,08,25,13.40
2015,06,23,08,26,13.40
2015,06,23,08,27,13.40
2015,06,23,08,28,13.50
2015,06,23,08,29,13.50
2015,06,23,08,30,13.50
2015,06,23,08,31,13.60
2015,06,23,08,32,13.70
2015,06,23,08,33,13.70
2015,06,23,08,34,13.80
2015,06,23,08,35,13.90
2015,06,23,08,36,13.90
2015,06,23,08,37,14.00
2015,06,23,08,38,14.10
2015,06,23,08,39,14.10
2015,06,23,08,40,14.20
2015,06,23,08,41,14.20
2015,06,23,08,42,14.30
2015,06,23,08,43,14.30
2015,06,23,08,44,14.40
2015,06,23,08,45,14.40
2015,06,23,08,46,14.40
2015,06,23,08,47,14.50
2015,06,23,08,48,14.50
2015,06,23,08,49,14.50
2015,06,23,08,50,14.60
2015,06,23,08,51,14.60
2015,06,23,08,52,14.70
2015,06,23,08,53,14.70
2015,06,23,08,54,14.80
2015,06,23,08,55,14.80
2015,06,23,08,56,14.80
2015,06,23,08,57,14.80
2015,06,23,08,58,14.90
2015,06,23,08,59,14.90
2015,06,23,09,00,14.90
2015,06,23,09,01,15.00
2015,06,23,09,02,15.00
2015,06,23,09,03,15.00
2015,06,23,09,04,15.00
2015,06,23,09,05,15.00
2015,06,23,09,06,15.00
2015,06,23,09,07,15.00
2015,06,23,09,08,15.00
2015,06,23,09,09,15.00
2015,06,23,09,10,15.10
2015,06,23,09,11,15.20
2015,06,23,09,12,15.20
2015,06,23,09,13,15.20
2015,06,23,09,14,15.30
2015,06,23,09,15,15.30
2015,06,23,09,16,15.30
2015,06,23,09,17,15.30
2015,06,23,09,18,15.40
2015,06,23,09,19,15.40
2015,06,23,09,20,15.50
2015,06,23,09,21,15.50
2015,06,23,09,22,15.60
2015,06,23,09,23,15.60
2015,06,23,09,24,15.70
2015,06,23,09,25,15.70
2015,06,23,09,26,15.80
2015,06,23,09,27,15.80
2015,06,23,09,28,15.80
2015,06,23,09,29,15.80
2015,06,23,09,30,15.90
2015,06,23,09,31,15.90
2015,06,23,09,32,16.00
2015,06,23,09,33,16.00
2015,06,23,09,34,16.10
2015,06,23,09,35,16.10
2015,06,23,09,36,16.10
2015,06,23,09,37,16.20
2015,06,23,09,38,16.20
2015,06,23,09,39,16.20
2015,06,23,09,40,16.20
2015,06,23,09,41,16.30
2015,06,23,09,42,16.40
2015,06,23,09,43,16.40
2015,06,23,09,44,16.50
2015,06,23,09,45,16.60
2015,06,23,09,46,16.60
2015,06,23,09,47,16.70
2015,06,23,09,48,16.80
2015,06,23,09,49,16.90
2015,06,23,09,50,17.00
2015,06,23,09,51,17.10
2015,06,23,09,52,17.10
2015,06,23,09,53,17.20
2015,06,23,09,54,17.30
2015,06,23,09,55,17.30
2015,06,23,09,56,17.40
2015,06,23,09,57,17.40
2015,06,23,09,58,17.50
2015,06,23,09,59,17.50
2015,06,23,10,00,17.60
2015,06,23,10,01,17.60
2015,06,23,10,02,17.60
2015,06,23,10,03,17.60
2015,06,23,10,04,17.60
2015,06,23,10,05,17.60
2015,06,23,10,06,17.60
2015,06,23,10,07,17.60
2015,06,23,10,08,17.60
2015,06,23,10,09,17.60
2015,06,23,10,10,17.50
2015,06,23,10,11,17.50
2015,06,23,10,12,17.50
2015,06,23,10,13,17.60
2015,06,23,10,14,17.60
2015,06,23,10,15,17.70
2015,06,23,10,16,17.80
2015,06,23,10,17,17.80
2015,06,23,10,18,17.90
2015,06,23,10,19,17.90
2015,06,23,10,20,18.00
2015,06,23,10,21,18.10
2015,06,23,10,22,18.10
2015,06,23,10,23,18.20
2015,06,23,10,24,18.30
2015,06,23,10,25,18.30
2015,06,23,10,26,18.30
2015,06,23,10,27,18.20
2015,06,23,10,28,18.20
2015,06,23,10,29,18.20
2015,06,23,10,30,18.20
2015,06,23,10,31,18.20
2015,06,23,10,32,18.30
2015,06,23,10,33,18.30
2015,06,23,10,34,18.40
2015,06,23,10,35,18.40
2015,06,23,10,36,18.50
2015,06,23,10,37,18.50
2015,06,23,10,38,18.60
2015,06,23,10,39,18.70
2015,06,23,10,40,18.70
2015,06,23,10,41,18.80
2015,06,23,10,42,18.90
2015,06,23,10,43,18.90
2015,06,23,10,44,19.00
2015,06,23,10,45,19.10
2015,06,23,10,46,19.20
2015,06,23,10,47,19.20
2015,06,23,10,48,19.30
2015,06,23,10,49,19.30
2015,06,23,10,50,19.30
2015,06,23,10,51,19.30
2015,06,23,10,52,19.30
2015,06,23,10,53,19.20
2015,06,23,10,54,19.20
2015,06,23,10,55,19.20
2015,06,23,10,56,19.20
2015,06,23,10,57,19.20
2015,06,23,10,58,19.20
2015,06,23,10,59,19.20
2015,06,23,11,00,19.20
2015,06,23,11,01,19.20
2015,06,23,11,02,19.20
2015,06,23,11,03,19.20
2015,06,23,11,04,19.20
2015,06,23,11,05,19.20
2015,06,23,11,06,19.20
2015,06,23,11,07,19.20
2015,06,23,11,08,19.30
2015,06,23,11,09,19.40
2015,06,23,11,10,19.50
2015,06,23,11,11,19.60
2015,06,23,11,12,19.70
2015,06,23,11,13,19.80
2015,06,23,11,14,19.90
2015,06,23,11,15,20.00
2015,06,23,11,16,20.20
2015,06,23,11,17,20.30
2015,06,23,11,18,20.30
2015,06,23,11,19,20.30
2015,06,23,11,20,20.30
2015,06,23,11,21,20.40
2015,06,23,11,22,20.40
2015,06,23,11,23,20.50
2015,06,23,11,24,20.60
2015,06,23,11,25,20.60
2015,06,23,11,26,20.70
2015,06,23,11,27,20.80
2015,06,23,11,28,20.90
2015,06,23,11,29,21.00
2015,06,23,11,30,21.10
2015,06,23,11,31,21.20
2015,06,23,11,32,21.30
2015,06,23,11,33,21.50
2015,06,23,11,34,21.60
2015,06,23,11,35,21.70
2015,06,23,11,36,21.80
2015,06,23,11,37,21.80
2015,06,23,11,38,21.80
2015,06,23,11,39,21.80
2015,06,23,11,40,21.70
2015,06,23,11,41,21.60
2015,06,23,11,42,21.60
2015,06,23,11,43,21.50
2015,06,23,11,44,21.50
2015,06,23,11,45,21.50
2015,06,23,11,46,21.50
2015,06,23,11,47,21.50
2015,06,23,11,48,21.50
2015,06,23,11,49,21.50
2015,06,23,11,50,21.60
2015,06,23,11,51,21.60
2015,06,23,11,52,21.60
2015,06,23,11,53,21.50
2015,06,23,11,54,21.40
2015,06,23,11,55,21.40
2015,06,23,11,56,21.40
2015,06,23,11,57,21.40
2015,06,23,11,58,21.50
2015,06,23,11,59,21.60
2015,06,23,12,00,21.60
2015,06,23,12,01,21.70
2015,06,23,12,02,21.70
2015,06,23,12,03,21.80
2015,06,23,12,04,21.80
2015,06,23,12,05,21.90
2015,06,23,12,06,21.90
2015,06,23,12,07,22.00
2015,06,23,12,08,22.10
2015,06,23,12,09,22.20
2015,06,23,12,10,22.30
2015,06,23,12,11,22.40
2015,06,23,12,12,22.50
2015,06,23,12,13,22.60
2015,06,23,12,14,22.60
2015,06,23,12,15,22.60
2015,06,23,12,16,22.50
2015,06,23,12,17,22.60
2015,06,23,12,18,22.60
2015,06,23,12,19,22.60
2015,06,23,12,20,22.60
2015,06,23,12,21,22.60
2015,06,23,12,22,22.70
2015,06,23,12,23,22.70
2015,06,23,12,24,22.80
2015,06,23,12,25,22.90
2015,06,23,12,26,23.00
2015,06,23,12,27,23.00
2015,06,23,12,28,23.20
2015,06,23,12,29,23.30
2015,06,23,12,30,23.40
2015,06,23,12,31,23.50
2015,06,23,12,32,23.60
2015,06,23,12,33,23.70
2015,06,23,12,34,23.70
2015,06,23,12,35,23.70
2015,06,23,12,36,23.80
2015,06,23,12,37,23.80
2015,06,23,12,38,23.80
2015,06,23,12,39,23.70
2015,06,23,12,40,23.70
2015,06,23,12,41,23.70
2015,06,23,12,42,23.70
2015,06,23,12,43,23.70
2015,06,23,12,44,23.70
2015,06,23,12,45,23.80
2015,06,23,12,46,23.80
2015,06,23,12,47,23.80
2015,06,23,12,48,23.80
2015,06,23,12,49,23.90
2015,06,23,12,50,24.00
2015,06,23,12,51,24.00
2015,06,23,12,52,24.00
2015,06,23,12,53,24.00
2015,06,23,12,54,23.90
2015,06,23,12,55,23.80
2015,06,23,12,56,23.70
2015,06,23,12,57,23.70
2015,06,23,12,58,23.60
2015,06,23,12,59,23.60
2015,06,23,13,00,23.60
2015,06,23,13,01,23.60
2015,06,23,13,02,23.60
2015,06,23,13,03,23.70
2015,06,23,13,04,23.70
2015,06,23,13,05,23.90
2015,06,23,13,06,24.00
2015,06,23,13,07,24.10
2015,06,23,13,08,24.30
2015,06,23,13,09,24.40
2015,06,23,13,10,24.50
2015,06,23,13,11,24.70
2015,06,23,13,12,24.80
2015,06,23,13,13,24.90
2015,06,23,13,14,25.10
2015,06,23,13,15,25.20
2015,06,23,13,16,25.30
2015,06,23,13,17,25.30
2015,06,23,13,18,25.40
2015,06,23,13,19,25.40
2015,06,23,13,20,25.40
2015,06,23,13,21,25.30
2015,06,23,13,22,25.20
2015,06,23,13,23,25.00
2015,06,23,13,24,24.90
2015,06,23,13,25,24.80
2015,06,23,13,26,24.80
2015,06,23,13,27,24.80
2015,06,23,13,28,24.90
2015,06,23,13,29,25.00
2015,06,23,13,30,25.00
2015,06,23,13,31,25.10
2015,06,23,13,32,25.20
2015,06,23,13,33,25.30
2015,06,23,13,34,25.20
2015,06,23,13,35,25.10
2015,06,23,13,36,24.90
2015,06,23,13,37,24.80
2015,06,23,13,38,24.70
2015,06,23,13,39,24.60
2015,06,23,13,40,24.50
2015,06,23,13,41,24.50
2015,06,23,13,42,24.50
2015,06,23,13,43,24.50
2015,06,23,13,44,24.50
2015,06,23,13,45,24.60
2015,06,23,13,46,24.60
2015,06,23,13,47,24.70
2015,06,23,13,48,24.80
2015,06,23,13,49,24.90
2015,06,23,13,50,25.00
2015,06,23,13,51,25.10
2015,06,23,13,52,25.20
2015,06,23,13,53,25.40
2015,06,23,13,54,25.50
2015,06,23,13,55,25.60
2015,06,23,13,56,25.70
2015,06,23,13,57,25.60
2015,06,23,13,58,25.50
2015,06,23,13,59,25.40
2015,06,23,14,00,25.50
2015,06,23,14,01,25.60
2015,06,23,14,02,25.60
2015,06,23,14,03,25.70
2015,06,23,14,04,25.80
2015,06,23,14,05,25.90
2015,06,23,14,06,26.00
2015,06,23,14,07,26.10
2015,06,23,14,08,26.00
2015,06,23,14,09,26.00
2015,06,23,14,10,25.90
2015,06,23,14,11,25.90
2015,06,23,14,12,25.90
2015,06,23,14,13,25.90
2015,06,23,14,14,25.90
2015,06,23,14,15,25.80
2015,06,23,14,16,25.50
2015,06,23,14,17,25.30
2015,06,23,14,18,25.10
2015,06,23,14,19,25.00
2015,06,23,14,20,25.00
2015,06,23,14,21,24.90
2015,06,23,14,22,24.80
2015,06,23,14,23,24.80
2015,06,23,14,24,24.80
2015,06,23,14,25,24.80
2015,06,23,14,26,24.80
2015,06,23,14,27,24.80
2015,06,23,14,28,24.90
2015,06,23,14,29,24.90
2015,06,23,14,30,25.00
2015,06,23,14,31,25.00
2015,06,23,14,32,25.10
2015,06,23,14,33,25.00
2015,06,23,14,34,24.90
2015,06,23,14,35,24.90
2015,06,23,14,36,24.90
2015,06,23,14,37,24.90
2015,06,23,14,38,24.90
2015,06,23,14,39,24.80
2015,06,23,14,40,24.70
2015,06,23,14,41,24.70
2015,06,23,14,42,24.70
2015,06,23,14,43,24.70
2015,06,23,14,44,24.80
2015,06,23,14,45,24.80
2015,06,23,14,46,24.90
2015,06,23,14,47,24.90
2015,06,23,14,48,24.90
2015,06,23,14,49,25.00
2015,06,23,14,50,25.10
2015,06,23,14,51,25.10
2015,06,23,14,52,25.20
2015,06,23,14,53,25.30
2015,06,23,14,54,25.20
2015,06,23,14,55,25.20
2015,06,23,14,56,25.30
2015,06,23,14,57,25.30
2015,06,23,14,58,25.30
2015,06,23,14,59,25.30
2015,06,23,15,00,25.20
2015,06,23,15,01,25.10
2015,06,23,15,02,25.00
2015,06,23,15,03,24.90
2015,06,23,15,04,24.80
2015,06,23,15,05,24.70
2015,06,23,15,06,24.60
2015,06,23,15,07,24.60
2015,06,23,15,08,24.60
2015,06,23,15,09,24.60
2015,06,23,15,10,24.70
2015,06,23,15,11,24.70
2015,06,23,15,12,24.80
2015,06,23,15,13,24.80
2015,06,23,15,14,24.80
2015,06,23,15,15,24.80
2015,06,23,15,16,24.90
2015,06,23,15,17,25.00
2015,06,23,15,18,25.10
2015,06,23,15,19,25.10
2015,06,23,15,20,25.10
2015,06,23,15,21,25.00
2015,06,23,15,22,25.00
2015,06,23,15,23,25.00
2015,06,23,15,24,25.10
2015,06,23,15,25,25.10
2015,06,23,15,26,25.10
2015,06,23,15,27,25.10
2015,06,23,15,28,25.10
2015,06,23,15,29,25.20
2015,06,23,15,30,25.20
2015,06,23,15,31,25.30
2015,06,23,15,32,25.40
2015,06,23,15,33,25.50
2015,06,23,15,34,25.60
2015,06,23,15,35,25.60
2015,06,23,15,36,25.70
2015,06,23,15,37,25.70
2015,06,23,15,38,25.70
2015,06,23,15,39,25.70
2015,06,23,15,40,25.70
2015,06,23,15,41,25.70
2015,06,23,15,42,25.70
2015,06,23,15,43,25.50
2015,06,23,15,44,25.40
2015,06,23,15,45,25.30
2015,06,23,15,46,25.20
2015,06,23,15,47,25.10
2015,06,23,15,48,25.00
2015,06,23,15,49,24.90
2015,06,23,15,50,24.90
2015,06,23,15,51,24.80
2015,06,23,15,52,24.80
2015,06,23,15,53,24.70
2015,06,23,15,54,24.70
2015,06,23,15,55,24.80
2015,06,23,15,56,24.80
2015,06,23,15,57,24.90
2015,06,23,15,58,24.90
2015,06,23,15,59,24.90
2015,06,23,16,00,24.90
2015,06,23,16,01,24.90
2015,06,23,16,02,25.00
2015,06,23,16,03,25.00
2015,06,23,16,04,25.00
2015,06,23,16,05,25.10
2015,06,23,16,06,25.10
2015,06,23,16,07,25.10
2015,06,23,16,08,25.10
2015,06,23,16,09,25.10
2015,06,23,16,10,25.00
2015,06,23,16,11,24.90
2015,06,23,16,12,24.90
2015,06,23,16,13,24.80
2015,06,23,16,14,24.80
2015,06,23,16,15,24.80
2015,06,23,16,16,24.80
2015,06,23,16,17,24.80
2015,06,23,16,18,24.80
2015,06,23,16,19,24.90
2015,06,23,16,20,24.90
2015,06,23,16,21,25.00
2015,06,23,16,22,25.00
2015,06,23,16,23,24.90
2015,06,23,16,24,24.80
2015,06,23,16,25,24.70
2015,06,23,16,26,24.60
2015,06,23,16,27,24.60
2015,06,23,16,28,24.70
2015,06,23,16,29,24.60
2015,06,23,16,30,24.60
2015,06,23,16,31,24.60
2015,06,23,16,32,24.60
2015,06,23,16,33,24.60
2015,06,23,16,34,24.60
2015,06,23,16,35,24.60
2015,06,23,16,36,24.70
2015,06,23,16,37,24.70
2015,06,23,16,38,24.80
2015,06,23,16,39,24.80
2015,06,23,16,40,24.80
2015,06,23,16,41,24.80
2015,06,23,16,42,24.80
2015,06,23,16,43,24.80
2015,06,23,16,44,24.80
2015,06,23,16,45,24.80
2015,06,23,16,46,24.80
2015,06,23,16,47,24.80
2015,06,23,16,48,24.70
2015,06,23,16,49,24.70
2015,06,23,16,50,24.70
2015,06,23,16,51,24.70
2015,06,23,16,52,24.70
2015,06,23,16,53,24.80
2015,06,23,16,54,24.80
2015,06,23,16,55,24.90
2015,06,23,16,56,24.90
2015,06,23,16,57,24.90
2015,06,23,16,58,24.80
2015,06,23,16,59,24.90
2015,06,23,17,00,24.90
2015,06,23,17,01,24.90
2015,06,23,17,02,25.00
2015,06,23,17,03,25.10
2015,06,23,17,04,25.20
2015,06,23,17,05,25.30
2015,06,23,17,06,25.30
2015,06,23,17,07,25.30
2015,06,23,17,08,25.20
2015,06,23,17,09,25.10
2015,06,23,17,10,25.00
2015,06,23,17,11,25.00
2015,06,23,17,12,24.90
2015,06,23,17,13,24.90
2015,06,23,17,14,24.90
2015,06,23,17,15,24.90
2015,06,23,17,16,24.90
2015,06,23,17,17,25.00
2015,06,23,17,18,25.00
2015,06,23,17,19,25.10
2015,06,23,17,20,25.10
2015,06,23,17,21,25.10
2015,06,23,17,22,25.10
2015,06,23,17,23,25.10
2015,06,23,17,24,25.10
2015,06,23,17,25,25.20
2015,06,23,17,26,25.20
2015,06,23,17,27,25.30